Regional Weather Roundup
Issued by NWS

Home | Current Version | Previous Version | Text Only | Print | Product List | Glossary Off
Versions: 1 2 3 4 5 6 7 8 9 10 11 12 13 14 15 16 17 18 19 20 21 22 23 24 25 26 27 28 29 30 31 32 33 34 35 36 37 38 39 40 41 42 43 44 45 46 47 48 49 50

000
ASUS45 KPSR 010410
RWRAZ

ARIZONA REGIONAL HOURLY WEATHER ROUNDUP
NATIONAL WEATHER SERVICE PHOENIX AZ
900 PM MST THU JUL 31 2014

NOTE: FAIR INDICATES FEW OR NO CLOUDS BELOW 12,000 FEET WITH NO
SIGNIFICANT WEATHER AND/OR OBSTRUCTIONS TO VISIBILITY.

AZZ001>003-036-010500-
NORTHWEST ARIZONA

CITY           SKY/WX    TMP DP  RH WIND       PRES   REMARKS
BULLHEAD CITY  MOCLDY   108  50  14 SE17      29.73R HX 104
KINGMAN        CLOUDY    85  51  31 SE17      30.02R
$$

AZZ004>008-015-016-018-010500-
NORTH CENTRAL ARIZONA

CITY           SKY/WX    TMP DP  RH WIND       PRES   REMARKS
GRAND CANYON   MOCLDY    59  54  83 CALM      30.31R HAZE
WILLIAMS       MOCLDY    59  50  72 S8        30.39S
PRESCOTT       CLOUDY    69  58  67 W8        30.24S
FLAGSTAFF      CLOUDY    57  54  89 W6        30.35F
PAYSON         MOCLDY    75  48  38 VRB6      30.21F
PAGE           CLOUDY    77  52  41 SE8       30.09R
$$

AZZ009>014-017-010500-
NORTHEAST ARIZONA

CITY           SKY/WX    TMP DP  RH WIND       PRES   REMARKS
WINSLOW        MOCLDY    72  51  47 CALM      30.20R
SAINT JOHNS    LGT RAIN  66  61  84 S14       30.28R
WINDOW ROCK    MOCLDY    66  52  60 CALM      30.33S
SHOW LOW       CLOUDY    59  55  88 SE7       30.35F
$$

AZZ023-010500-
GREATER PHOENIX AREA

CITY           SKY/WX    TMP DP  RH WIND       PRES   REMARKS
PHOENIX        MOCLDY   100  52  19 NE10      29.82R
BUCKEYE          N/A     90  63  40 E28G39    29.85R VSB 1/2
LUKE AFB       NOT AVBL
DEER VALLEY    PTCLDY    94  52  24 N13       29.86R
SCOTTSDALE     PTCLDY    97  51  21 NE12      29.87R
MESA-GATEWAY   MOCLDY    95  55  26 N12G21    29.89
CHANDLER       MOCLDY    97  54  23 NE14G23   29.86R
$$

AZZ027-028-010500-
SOUTHWEST MARICOPA COUNTY AND PINAL COUNTY

CITY           SKY/WX    TMP DP  RH WIND       PRES   REMARKS
CASA GRANDE    CLOUDY    99  55  23 CALM      29.87R
$$

AZZ503-504-507>509-010500-
SOUTHEAST ARIZONA

CITY           SKY/WX    TMP DP  RH WIND       PRES   REMARKS
TUCSON         MOCLDY    92  54  27 CALM      30.00R
DAVIS-MONTHAN  CLOUDY    90  54  29 NW2       29.99R
NOGALES        CLOUDY    80  59  48 S7        30.12R
SIERRA VISTA   CLOUDY    81  55  41 W9        30.17R
DOUGLAS        CLOUDY    77  64  64 CALM      30.12R
SAFFORD        CLOUDY    84  56  38 E26G35    30.01R
$$

AZZ020-021-025-026-031-010500-
SOUTHWEST ARIZONA

CITY           SKY/WX    TMP DP  RH WIND       PRES   REMARKS
YUMA           MOCLDY    97  61  30 S10       29.77R
$$

CAZ031-033-041-043-047-048-061-010500-
SOUTHERN CALIFORNIA

CITY           SKY/WX    TMP DP  RH WIND       PRES   REMARKS
DOWNTOWN L.A.  CLEAR     70  61  73 VRB3      29.88R
L.A. AIRPORT   PTCLDY    68  62  81 SW10      29.89R
SAN DIEGO      MOCLDY    72  64  76 NW5       29.93R
BURBANK        CLEAR     76  57  51 SE8       29.88R
ONTARIO        PTCLDY    82  60  47 SW10      29.89R
RIVERSIDE      CLEAR     82  60  47 W5        29.89R
PALM SPRINGS   CLEAR    104  54  19 E6        29.78R HX 102
EL CENTRO NAS  MOCLDY    96  70  42 SE10      29.72R HX 102
IMPERIAL       MOCLDY    98  70  40 SE13      29.72R HX 105
BLYTHE           N/A    N/A N/A N/A MISG      29.75R
NEEDLES        MOCLDY   106  53  17 SW16G22   29.76R HX 104
$$

NVZ020-UTZ003-010500-
SOUTHERN NEVADA-UTAH

CITY           SKY/WX    TMP DP  RH WIND       PRES   REMARKS
LAS VEGAS      MOCLDY   101  40  12 SW14      29.81R
SALT LAKE CITY MOCLDY    76  55  48 N5        30.11S
$$

NMZ009-TXZ055-010500-
NEW MEXICO-WEST TEXAS

CITY           SKY/WX    TMP DP  RH WIND       PRES   REMARKS
ALBUQUERQUE    CLOUDY    65  54  67 E20       30.26R
EL PASO        MOCLDY    79  58  48 E9        30.10R
$$


........................KEY........................
SKY/WX - SKY CONDITION/WEATHER
TMP    - TEMPERATURE IN FAHRENHEIT
DP     - DEW POINT IN FAHRENHEIT
RH     - RELATIVE HUMIDITY IN PERCENT
WIND   - DIRECTION AND SPEED IN MILES PER HOUR (MPH)
VRB    - VARIABLE WIND DIRECTION
PRES   - MEAN SEA LEVEL PRESSURE IN INCHES OF MERCURY
         F - FALLING PRESSURE   R - RISING PRESSURE
         S - STEADY PRESSURE
VSB    - VISIBILITY IN MILES
HX     - HEAT INDEX IN FAHRENHEIT
WCI    - WIND CHILL INDEX IN FAHRENHEIT
TC     - TEMPERATURE IN CELSIUS WHICH IS ALSO KNOWN AS
         TEMPERATURE IN CENTIGRADE
AFB    - AIR FORCE BASE
         LUKE AFB IS LUKE AIR FORCE BASE
         DAVIS-MONTHAN IS DAVIS-MONTHAN AIR FORCE BASE
NAS    - NAVAL AIR STATION
         EL CENTRO NAS IS EL CENTRO NAVAL AIR STATION
N/A    - NOT AVAILABLE


USA.gov is the U.S. government's official web portal to all federal, state and local government web resources and services.